Regional Weather Roundup
Issued by NWS

Home | Current Version | Previous Version | Graphics & Text | Print | Product List | Glossary On
Versions: 1 2 3 4 5 6 7 8 9 10 11 12 13 14 15 16 17 18 19 20 21 22 23 24 25 26 27 28 29 30 31 32 33 34 35 36 37 38 39 40 41 42 43 44 45 46 47 48 49 50
000
ASUS43 KLOT 261903
RWRIL

ILLINOIS REGIONAL WEATHER ROUNDUP
NATIONAL WEATHER SERVICE CHICAGO/ROMEOVILLE IL
200 PM CDT SUN MAR 26 2017

NOTE: "FAIR" INDICATES FEW OR NO CLOUDS BELOW 12,000 FEET WITH NO
SIGNIFICANT WEATHER AND/OR OBSTRUCTIONS TO VISIBILITY.

* THESE STATIONS ARE NOT UNDER NWS QUALITY CONTROL. THEY ALSO MAY NOT
  REPORT WEATHER SUCH AS PRECIPITATION OR FOG.

ILZ001-002-007-009-015-016-024-262000-
NORTHWEST ILLINOIS

CITY           SKY/WX    TMP DP  RH WIND       PRES   REMARKS
MOLINE         CLOUDY    53  50  89 SW7       29.82R
STERLING*      CLOUDY    55  52  89 VRB3      29.82S
SAVANNA*       CLOUDY    55  53  92 W5        29.81S FOG
$$

ILZ003-004-008-010-011-017-018-262000-
NORTH CENTRAL ILLINOIS

CITY           SKY/WX    TMP DP  RH WIND       PRES   REMARKS
ROCKFORD       CLOUDY    58  51  78 S12       29.82S
FREEPORT*      CLOUDY    51  51  99 CALM      29.83S FOG
ROCHELLE*      CLOUDY    54  52  92 S10       29.82F
DE KALB*       CLOUDY    56  52  88 S13       29.82F
PERU*          CLOUDY    54  49  84 SW9       29.83F
$$

ILZ005-006-012>014-019>023-262000-
NORTHEAST ILLINOIS

CITY           SKY/WX    TMP DP  RH WIND       PRES   REMARKS
CHICAGO-OHARE  CLOUDY    61  52  72 SW9       29.80F
CHICAGO-MIDWAY CLOUDY    61  53  75 SW10      29.81F
AURORA         CLOUDY    60  52  74 SW14      29.82S
LANSING*       CLOUDY    61  54  78 SW16      29.82F
JOLIET*        CLOUDY    60  52  74 SW10      29.83S
WAUKEGAN       FOG       49  49 100 CALM      29.81F VSB 1/4
DUPAGE AIRPORT CLOUDY    59  54  83 SW14      29.81S
WHEELING       LGT RAIN  58  56  93 SW6       29.82S
MORRIS*        CLOUDY    57  52  81 SW7       29.81F
$$

LMZ740>746-262000-
SOUTHERN LAKE MICHIGAN

STATION/POSITION SKY/WX   TEMP    WIND        PRES    VSBY  WAVE
                          AIR SEA DIR/SP/G                  HT/PER
                          (F)     (DEG/KT/KT) (MB)    (MI)  (FT/S)
HARRISON CRIB              55     130/  6/  6   N/A
BURNHAM HARBOR             49     130/  3/  4   N/A
CALUMET HARBOR             59     200/ 10/ 16 1009.3S
BURNS HARBOR               58     220/ 10/ 21 1010.5F
MICHIGAN CITY              58     160/  7/  8   N/A
$$

ILZ025>027-034>036-040-047-049-050-058-095>099-262000-
WEST-CENTRAL ILLINOIS

CITY           SKY/WX    TMP DP  RH WIND       PRES   REMARKS
QUINCY         CLOUDY    50  47  89 W12       29.88R
GALESBURG*     CLOUDY    49  47  93 SW10      29.84R
MACOMB*        CLOUDY    50  48  92 W13       29.87S
JACKSONVILLE*  CLOUDY    54  49  83 W10       29.87S
PITTSFIELD*    CLOUDY    53  49  85 W10       29.89R
$$

ILZ028>032-037-038-041>044-048-051>054-059>061-262000-
CENTRAL ILLINOIS

CITY           SKY/WX    TMP DP  RH WIND       PRES   REMARKS
PONTIAC        CLOUDY    56  53  89 SW14      29.85S
BLOOMINGTON    CLOUDY    53  50  89 SW12      29.85F
DECATUR        CLOUDY    56  49  77 SW14      29.87S
PEORIA         CLOUDY    53  50  89 W10       29.85R
SPRINGFIELD    CLOUDY    56  50  80 SW10      29.87S
TAYLORVILLE    NOT AVBL
$$

ILZ033-039-045-046-055>057-062-063-262000-
EAST-CENTRAL ILLINOIS

CITY           SKY/WX    TMP DP  RH WIND       PRES   REMARKS
CHAMPAIGN      CLOUDY    60  49  66 SW18G25   29.86F
RANTOUL*       CLOUDY    60  52  73 SW15      29.85F
MATTOON        CLOUDY    57  51  80 SW12G18   29.87F
PARIS*         CLOUDY    60  52  75 SW15      29.88S
$$

ILZ079-100>102-262000-
SOUTHWEST ILLINOIS

CITY           SKY/WX    TMP DP  RH WIND       PRES   REMARKS
ALTON          CLOUDY    55  50  82 SW8       29.90F
BELLEVILLE     CLOUDY    57  51  79 SW8       29.90S
CAHOKIA*       CLOUDY    58  49  72 SW6       29.90S
SPARTA*        CLOUDY    58  49  72 S7        29.93S
$$

ILZ064>066-069>071-074>076-080>082-084>086-088>090-092>094-262000-
SOUTH-CENTRAL ILLINOIS

CITY           SKY/WX    TMP DP  RH WIND       PRES   REMARKS
CARBONDALE     CLOUDY    60  49  66 SW8       29.93F
CAIRO*         MOSUNNY   62  51  66 SW15      29.95F
EFFINGHAM*     CLOUDY    58  50  76 S12       29.91F
MARION         PTSUNNY   63  48  59 SW10      29.94S
MT. VERNON     CLOUDY    60  49  66 SW9       29.91F
CENTRALIA*     CLOUDY    59  51  76 SW10G16   29.90F
SALEM*         CLOUDY    59  49  71 SW13      29.91S
$$

ILZ067-068-072-073-078-083-087-091-262000-
SOUTHEAST ILLINOIS

CITY           SKY/WX    TMP DP  RH WIND       PRES   REMARKS
LAWRENCEVILLE  LGT RAIN  62  53  72 SW14      29.89F
FLORA*         CLOUDY    60  49  67 SW15G21   29.91F
FAIRFIELD*     CLOUDY    59  49  69 SW10G16   29.90F
HARRISBURG*    CLOUDY    61  50  68 W13       29.93S
ROBINSON*      CLOUDY    60  53  76 SW16      29.89F
CARMI*         CLOUDY    60  51  72 SW16      29.91F
$$

ABBREVIATIONS USED IN REMARKS
   TC - TEMPERATURE IN CELSIUS
  WCI - WIND CHILL INDEX
   HX - HEAT INDEX
  VSB - VISIBILITY
$$




USA.gov is the U.S. government's official web portal to all federal, state and local government web resources and services.